Total_Precipitation_Accumulation
0.60 0.80 0.90 0.83 0.86 0.93 0.84 0.80 0.81 0.70 0.56 0.62 0.65 0.65 0.60 0.57 0.52 0.51 0.50 0.46 0.48 0.41 0.37 0.31 0.31 0.36 0.50 0.56 0.56 0.60 0.67 0.64 0.59 0.56 0.65 0.77 0.83 0.94 1.04 1.12 1.23 1.25 1.24 1.30
0.62 0.64 0.57 0.60 0.68 0.85 0.87 0.89 0.84 0.75 0.59 0.60 0.65 0.69 0.61 0.55 0.51 0.44 0.40 0.38 0.42 0.38 0.36 0.32 0.33 0.36 0.39 0.44 0.45 0.51 0.55 0.54 0.49 0.47 0.55 0.69 0.84 0.95 1.12 1.32 1.56 1.50 1.38 1.41
0.59 0.53 0.45 0.49 0.60 0.77 0.79 0.74 0.68 0.77 0.71 0.70 0.79 0.84 0.70 0.61 0.56 0.47 0.39 0.39 0.43 0.40 0.34 0.32 0.34 0.37 0.34 0.35 0.42 0.48 0.53 0.53 0.52 0.57 0.76 1.07 1.39 1.55 1.63 1.68 1.91 1.95 1.81 1.75
0.75 0.51 0.43 0.46 0.53 0.62 0.84 0.60 0.53 0.68 0.91 0.90 0.78 0.94 0.67 0.61 0.66 0.51 0.42 0.39 0.40 0.42 0.40 0.37 0.36 0.40 0.33 0.35 0.43 0.50 0.54 0.63 0.64 0.77 1.09 1.54 1.90 2.08 2.06 2.11 2.19 2.30 2.23 2.07
0.63 0.43 0.43 0.48 0.45 0.54 0.80 0.65 0.67 0.74 0.83 0.80 0.57 0.65 0.57 0.58 0.67 0.55 0.49 0.46 0.46 0.42 0.42 0.40 0.41 0.45 0.45 0.45 0.50 0.58 0.69 0.86 1.03 1.15 1.34 1.67 1.85 1.93 2.06 2.21 2.48 2.67 2.75 2.70
0.47 0.36 0.39 0.40 0.40 0.47 0.63 0.77 0.89 0.90 0.91 0.88 0.46 0.45 0.51 0.51 0.52 0.54 0.54 0.57 0.55 0.48 0.42 0.43 0.50 0.53 0.53 0.63 0.71 0.74 0.92 1.08 1.15 1.27 1.38 1.49 1.59 1.74 1.97 2.16 2.41 2.58 2.63 2.69
0.54 0.46 0.37 0.35 0.52 0.57 0.61 0.88 1.25 1.36 1.26 0.87 0.39 0.39 0.45 0.36 0.32 0.37 0.41 0.41 0.42 0.44 0.44 0.48 0.51 0.59 0.62 0.70 0.84 0.91 0.99 1.15 1.18 1.28 1.38 1.39 1.46 1.59 1.77 1.88 1.94 1.98 1.97 2.05
0.55 0.54 0.36 0.33 0.40 0.50 0.52 0.63 1.02 1.25 1.05 0.72 0.43 0.49 0.44 0.29 0.24 0.22 0.26 0.31 0.36 0.47 0.52 0.55 0.56 0.69 0.76 0.84 0.95 1.07 1.13 1.19 1.24 1.32 1.41 1.38 1.48 1.61 1.70 1.66 1.62 1.69 1.73 1.79
0.48 0.47 0.28 0.28 0.28 0.34 0.51 0.51 0.58 0.74 0.61 0.62 0.49 0.42 0.33 0.22 0.20 0.20 0.26 0.37 0.46 0.54 0.60 0.66 0.69 0.77 0.85 0.94 1.02 1.12 1.25 1.31 1.36 1.36 1.42 1.54 1.61 1.62 1.60 1.48 1.43 1.50 1.44 1.41
0.37 0.46 0.37 0.30 0.33 0.34 0.40 0.50 0.63 0.75 0.81 0.75 0.51 0.44 0.41 0.31 0.28 0.30 0.35 0.44 0.59 0.69 0.73 0.79 0.87 0.94 0.99 1.02 1.12 1.21 1.31 1.44 1.42 1.39 1.49 1.67 1.64 1.41 1.27 1.16 1.18 1.22 1.26 1.30
0.27 0.41 0.46 0.39 0.36 0.35 0.39 0.41 0.53 0.65 0.63 0.85 0.95 0.88 0.70 0.66 0.54 0.58 0.62 0.70 0.88 0.93 0.95 0.94 1.01 1.09 1.08 1.09 1.18 1.23 1.32 1.47 1.50 1.38 1.48 1.51 1.31 1.05 0.93 0.93 0.95 0.96 0.96 1.00
0.25 0.38 0.42 0.34 0.24 0.22 0.32 0.32 0.38 0.63 0.64 0.67 1.00 1.03 0.84 0.87 0.86 0.97 1.06 1.21 1.17 1.14 1.17 1.08 1.05 1.07 1.01 1.01 1.10 1.19 1.31 1.38 1.29 1.25 1.22 1.06 0.88 0.77 0.74 0.71 0.69 0.70 0.74 0.73
0.33 0.43 0.53 0.49 0.43 0.30 0.29 0.23 0.25 0.38 0.58 0.67 1.02 1.04 0.78 0.85 0.98 1.16 1.27 1.28 1.11 0.98 0.91 0.88 0.87 0.82 0.79 0.83 0.87 0.91 1.05 1.13 0.94 0.84 0.87 0.82 0.73 0.68 0.66 0.64 0.62 0.60 0.63 0.67
0.34 0.37 0.46 0.54 0.44 0.28 0.26 0.22 0.21 0.32 0.56 0.60 0.71 0.76 0.68 0.80 0.97 1.07 1.11 1.01 0.80 0.70 0.67 0.64 0.57 0.54 0.59 0.61 0.61 0.57 0.62 0.75 0.70 0.63 0.66 0.67 0.65 0.64 0.66 0.67 0.64 0.60 0.61 0.64
0.34 0.35 0.29 0.27 0.21 0.19 0.19 0.19 0.20 0.26 0.33 0.48 0.54 0.53 0.54 0.60 0.63 0.65 0.68 0.66 0.58 0.53 0.45 0.44 0.44 0.44 0.50 0.50 0.50 0.48 0.46 0.49 0.53 0.53 0.54 0.61 0.63 0.63 0.61 0.62 0.59 0.56 0.57 0.58
0.32 0.32 0.22 0.22 0.18 0.16 0.14 0.12 0.16 0.21 0.25 0.34 0.35 0.35 0.32 0.31 0.28 0.27 0.29 0.35 0.35 0.32 0.28 0.32 0.36 0.40 0.47 0.48 0.46 0.48 0.45 0.41 0.41 0.42 0.43 0.52 0.58 0.59 0.62 0.59 0.55 0.53 0.53 0.55
0.34 0.35 0.33 0.24 0.16 0.21 0.19 0.11 0.13 0.17 0.17 0.22 0.27 0.31 0.30 0.24 0.22 0.20 0.18 0.19 0.21 0.22 0.24 0.26 0.30 0.36 0.42 0.42 0.42 0.43 0.43 0.40 0.38 0.40 0.42 0.48 0.51 0.49 0.53 0.54 0.50 0.47 0.51 0.54
0.28 0.36 0.46 0.35 0.31 0.34 0.18 0.08 0.08 0.11 0.12 0.16 0.20 0.20 0.22 0.20 0.21 0.19 0.16 0.16 0.17 0.18 0.20 0.23 0.26 0.30 0.38 0.40 0.40 0.41 0.40 0.39 0.37 0.37 0.39 0.45 0.46 0.46 0.44 0.46 0.44 0.43 0.47 0.51
0.23 0.37 0.56 0.50 0.40 0.23 0.14 0.10 0.09 0.10 0.12 0.14 0.13 0.12 0.13 0.13 0.18 0.16 0.14 0.13 0.13 0.14 0.15 0.18 0.23 0.32 0.38 0.41 0.45 0.46 0.41 0.39 0.39 0.38 0.36 0.38 0.41 0.44 0.45 0.40 0.39 0.40 0.45 0.49
0.28 0.35 0.57 0.59 0.54 0.34 0.16 0.09 0.10 0.13 0.20 0.18 0.16 0.13 0.13 0.15 0.20 0.18 0.14 0.12 0.11 0.11 0.12 0.15 0.20 0.29 0.35 0.41 0.44 0.47 0.48 0.41 0.37 0.38 0.39 0.40 0.39 0.38 0.40 0.40 0.40 0.41 0.47 0.51
0.40 0.47 0.54 0.55 0.54 0.28 0.11 0.09 0.13 0.26 0.28 0.19 0.16 0.14 0.15 0.15 0.16 0.14 0.10 0.09 0.11 0.11 0.12 0.14 0.19 0.26 0.32 0.39 0.43 0.50 0.51 0.40 0.38 0.45 0.48 0.48 0.43 0.43 0.48 0.51 0.49 0.49 0.49 0.52
0.49 0.55 0.51 0.53 0.58 0.37 0.14 0.15 0.24 0.29 0.21 0.16 0.14 0.14 0.14 0.13 0.13 0.11 0.11 0.10 0.12 0.13 0.14 0.14 0.17 0.23 0.27 0.35 0.41 0.45 0.48 0.47 0.46 0.47 0.50 0.50 0.49 0.49 0.53 0.59 0.59 0.59 0.59 0.59
0.47 0.53 0.56 0.50 0.40 0.24 0.17 0.22 0.24 0.23 0.21 0.17 0.15 0.14 0.13 0.12 0.12 0.11 0.12 0.11 0.12 0.13 0.15 0.17 0.19 0.23 0.26 0.33 0.37 0.41 0.46 0.51 0.49 0.48 0.50 0.51 0.52 0.52 0.52 0.55 0.60 0.63 0.62 0.60
0.40 0.39 0.50 0.47 0.29 0.22 0.23 0.22 0.23 0.22 0.19 0.15 0.14 0.14 0.14 0.13 0.13 0.13 0.13 0.12 0.13 0.15 0.17 0.20 0.25 0.27 0.28 0.34 0.39 0.49 0.52 0.50 0.52 0.54 0.55 0.54 0.53 0.53 0.53 0.55 0.55 0.56 0.58 0.57
0.47 0.53 0.55 0.49 0.35 0.31 0.29 0.26 0.25 0.23 0.17 0.14 0.12 0.12 0.14 0.15 0.15 0.16 0.16 0.14 0.14 0.15 0.18 0.21 0.27 0.31 0.32 0.37 0.41 0.50 0.51 0.51 0.54 0.59 0.58 0.56 0.53 0.52 0.53 0.51 0.51 0.53 0.53 0.58
0.45 0.56 0.63 0.59 0.40 0.39 0.33 0.25 0.22 0.23 0.20 0.15 0.12 0.11 0.12 0.14 0.14 0.16 0.15 0.14 0.13 0.13 0.16 0.20 0.23 0.25 0.29 0.34 0.37 0.43 0.47 0.48 0.52 0.56 0.57 0.54 0.57 0.56 0.53 0.51 0.53 0.60 0.60 0.66